Regional Weather Roundup
Issued by NWS Bismarck, ND

Home | Current Version | Previous Version | Text Only | Print | Product List | Glossary On
Versions: 1 2 3 4 5 6 7 8 9 10 11 12 13 14 15 16 17 18 19 20 21 22 23 24 25 26 27 28 29 30 31 32 33 34 35 36 37 38 39 40 41 42 43 44 45 46 47 48 49 50
000
ASUS43 KBIS 021210
RWRBIS

NWR BROADCAST TEXT
NATIONAL WEATHER SERVICE BISMARCK ND
700 AM CDT THU JUL 02 2015

NOTE: "FAIR" INDICATES FEW OR NO CLOUDS BELOW 12,000 FEET WITH NO
SIGNIFICANT WEATHER AND/OR OBSTRUCTIONS TO VISIBILITY.


CITY           SKY/WX    TMP DP  RH WIND       PRES   REMARKS
WILLISTON      CLEAR     56  53  90 W3        30.02R
MINOT          PTCLDY    63  60  90 W6        29.96R FOG
MINOT AFB      CLEAR     61  61 100 W6        29.96R FOG
BISMARCK       MOCLDY    62  61  96 CALM      29.97S FOG
DICKINSON      CLEAR     58  56  93 W7        30.02R FOG
GARRISON         N/A     60  60 100 NW6       29.98R
HETTINGER ARPT PTCLDY    57  55  93 CALM      30.04S FOG
JAMESTOWN      CLOUDY    63  60  90 S5        29.96R
BEACH          FAIR      55  55 100 NW5       30.08R
CROSBY         FOG       57  57 100 W6        30.02R VSB 1
HARVEY         FAIR      63  63 100 NW5       29.96R FOG
HAZEN          CLOUDY    61  61 100 W5        30.01R FOG
MANDAN         FAIR      63  63 100 NW5       29.98S FOG
OAKES            N/A     59  59 100 SE7       29.98R
STANLEY        FAIR      57  57 100 NW5       30.01S
$$

CITY           SKY/WX    TMP DP  RH WIND       PRES   REMARKS
GRAND FORKS    MOSUNNY   58  56  93 S8        29.96R
GRAND FORKS AF SUNNY     59  57  91 S6        29.96R
DEVILS LAKE    CLOUDY    66  61  82 S3        29.94R
FARGO          SUNNY     60  54  80 S9        29.98S
CANDO          FAIR      59  59 100 NW5       29.95S FOG
CAVALIER       FAIR      61  59  94 S6        29.94R FOG
GRAFTON        FAIR      59  59 100 S6        29.95S
GWINNER        PTSUNNY  N/A N/A N/A SE6       29.98S
LANGDON        CLOUDY    63  63 100 S8        29.95S FOG
ROLLA          FAIR      57  57 100 NW6       29.97R
WALHALLA       FAIR      64  64 100 MISG      29.92F
$$

CITY           SKY/WX    TMP DP  RH WIND       PRES   REMARKS
ABERDEEN       CLOUDY    63  57  81 S7        29.97S
MOBRIDGE       RAIN      64  63  96 W6        29.94R
BUFFALO          N/A     61  59  93 NW9       30.00S
RAPID CITY     CLEAR     64  61  90 N16       30.05R
GLASGOW        CLEAR     56  53  90 W5        30.06S
SIDNEY         CLEAR     57  54  88 CALM      30.04R
WOLF POINT     PTCLDY    58  55  90 S6        30.05R
GLENDIVE       CLEAR     55  54  94 W7        30.07S
MILES CITY     CLEAR     59  55  87 W8        30.10R
BAKER          FOG       57  57 100 W6        30.08S VSB 1/4
$$

CITY           SKY/WX    TMP DP  RH WIND       PRES   REMARKS
BILLINGS       PTCLDY    63  54  72 W6        30.18R
GREAT FALLS    CLEAR     55  50  83 W5        30.20S
REGINA         PTCLDY    55  55 100 NW6       30.02R
ESTEVAN        FOG       55  55 100 SW2       29.99R VSB 1/8
$$



USA.gov is the U.S. government's official web portal to all federal, state and local government web resources and services.